Location: Herm
(49.4830°N, 2.4500°W)
Time: 08:52:50
(UTC+00:00)

Envisat - Pass Details

Date: 04 October 2022
Orbit: 763 x 765 km, 98.2° (Epoch: 01 December)

Event Time Altitude Azimuth Distance (km) Brightness Sun altitude
Rises 04:20:27 0° 26° (NNE) 3,245 7.1 -28.0°
Reaches altitude 10° 04:23:26 10° 44° (NE) 2,313 6.4 -27.6°
Maximum altitude 04:27:02 19° 89° (E) 1,757 5.5 -27.1°
Drops below altitude 10° 04:30:37 10° 135° (SE) 2,300 5.7 -26.6°
Sets 04:33:33 0° 153° (SSE) 3,220 6.3 -26.1°
